[[{"header":{"parameterUnit":"m.s-1","parameterCategory":1,"la1":30.2991,"la2":30.254,"lo1":-89.0895,"lo2":-89.0444,"dy":0.0017,"dx":0.0017,"nx":28,"ny":28,"refTime":"2024-05-09T03:00:00:Z","depth":0,"parameterNumber":2,"parameterNumberName":"U-component_of_WINDS"},"data":[0,0,0,0,0,0,0,0,0,0,0,0,0,0,0,0,0,0,0,0,0,0,0,0,0,0,0,0,0,0,0,0,0,0,0,0,0,0,0,0,0,0,0,0,0,0,0,0,0,0,0,0,0,0,0,0,0,0,0.6433,0.6434,0,0.6544,0.6546,0.6547,0.6602,0.6602,0.6602,0.6602,0.672,0.6723,0.6726,0,0,0,0,0,0,0,0,0,0,0,0,0,0.6275,0.6278,0.6433,0.6434,0.6436,0.6544,0.6546,0.6547,0.6602,0.6602,0.6602,0.6602,0.6719,0.6723,0.6726,0,0,0,0,0,0,0,0,0,0,0,0,0,0.6361,0.6278,0.6433,0.6476,0.6481,0.6544,0.6546,0.6548,0.6602,0.6602,0.6602,0.6602,0.6718,0.6722,0.6727,0.6755,0,0,0.6741,0.6743,0,0,0,0,0,0,0,0,0.6356,0.6366,0.6468,0.6473,0.6479,0.6559,0.6533,0.6617,0.6602,0.6556,0.6602,0.6602,0.6667,0.6676,0.6697,0.6761,0.6766,0.6742,0.6744,0.6746,0.6748,0,0,0,0,0,0,0,0.635,0.6362,0.6477,0.647,0.6476,0.6493,0.6505,0.6549,0.661,0.6561,0.6565,0.6577,0.667,0.6692,0.67,0.6768,0.6741,0.6746,0.6748,0.675,0.6868,0.6868,0,0,0,0,0,0,0.6336,0.6357,0.6473,0.648,0.6416,0.6495,0.6509,0.6534,0.661,0.6622,0.6577,0.6579,0.6684,0.6694,0.6704,0.6746,0.6746,0.6751,0.6753,0.6867,0.6868,0.6868,0,0,0,0,0,0,0.6332,0.6346,0.6469,0.642,0.6437,0.6498,0.6525,0.6536,0.6558,0.6622,0.6634,0.6588,0.6684,0.6697,0.6743,0.6751,0.6753,0.6757,0.6867,0.6867,0.6868,0.6828,0,0,0,0,0,0,0.6328,0.6344,0.6354,0.6419,0.6439,0.6504,0.6526,0.6538,0.6566,0.657,0.6636,0.6647,0.6685,0.6736,0.6748,0.6757,0.6761,0.6867,0.6867,0.6868,0.6829,0.6827,0.6826,0,0,0,0,0,0.6322,0.6337,0.6354,0.6367,0.6452,0.6504,0.6516,0.6559,0.6566,0.6578,0.662,0.6645,0.6748,0.674,0.6754,0.6765,0.6866,0.6867,0.6868,0.683,0.6828,0.6826,0,0,0,0,0,0,0.6271,0.6347,0.6365,0.6403,0.6447,0.6513,0.6529,0.6554,0.6597,0.6599,0.6653,0.6667,0.6709,0.6742,0.6732,0.68,0.681,0.6814,0.6777,0.6775,0.6773,0.6765,0.6765,0,0,0,0,0,0.6264,0.6298,0.6363,0.639,0.6411,0.6466,0.6491,0.652,0.6568,0.6587,0.6633,0.668,0.6724,0.6751,0.6795,0.6835,0.6852,0.685,0.6848,0.6846,0.6849,0.6878,0.6878,0.687,0.687,0.687,0,0,0.6249,0.6295,0.6314,0.6381,0.6418,0.6456,0.6481,0.6518,0.6547,0.6593,0.664,0.6676,0.6732,0.6776,0.6798,0.6805,0.6855,0.6847,0.6845,0.6849,0.6878,0.6879,0.688,0.6871,0.6871,0.6871,0,0,0.6243,0.628,0.6308,0.6346,0.6403,0.644,0.6447,0.6511,0.6537,0.6584,0.6621,0.6658,0.6731,0.6771,0.6801,0.6816,0.6842,0.6829,0.682,0.6847,0.6848,0.6849,0.6858,0.686,0.6831,0.6831,0.6831,0,0.6218,0.6274,0.6319,0.6356,0.6386,0.643,0.6462,0.6497,0.6565,0.6587,0.6593,0.6689,0.673,0.6787,0.6791,0.6812,0.6825,0.6821,0.6844,0.6845,0.6847,0.6856,0.6859,0.6829,0.683,0.683,0.683,0,0.6243,0.6281,0.6298,0.6363,0.6396,0.6429,0.6483,0.6511,0.6539,0.6577,0.6628,0.668,0.6736,0.6752,0.6779,0.6815,0.6818,0.6833,0.6845,0.6845,0.6855,0.6858,0.6827,0.6827,0.6828,0.6828,0,0,0.6203,0.6297,0.6303,0.6335,0.6404,0.6436,0.6474,0.6529,0.6554,0.6601,0.6637,0.67,0.6717,0.6751,0.6784,0.6808,0.6822,0.6822,0.6824,0.6822,0.6868,0.6857,0.686,0.684,0.684,0.6841,0.6865,0,0.6208,0.6276,0.6321,0.6372,0.6411,0.6456,0.649,0.6538,0.6575,0.6616,0.6659,0.6704,0.6721,0.6742,0.6768,0.6814,0.6832,0.6813,0.6876,0.6878,0.6861,0.6864,0.6851,0.687,0.6868,0.6869,0.6869,0,0.6221,0.6268,0.6323,0.6393,0.6411,0.6439,0.6497,0.6534,0.6591,0.6618,0.6658,0.6693,0.6739,0.6747,0.6814,0.68,0.6829,0.6857,0.6859,0.6867,0.6874,0.6875,0.6877,0.6881,0.6875,0.6875,0.6874,0,0.6191,0.6268,0.6312,0.6338,0.6419,0.6439,0.6474,0.6531,0.6564,0.6615,0.6637,0.6693,0.6724,0.6768,0.6819,0.6819,0.6882,0.6893,0.6908,0.6907,0.6919,0.6918,0.6928,0.6935,0.6935,0.6935,0.6935,0,0.6191,0.6224,0.63,0.6327,0.6367,0.642,0.6459,0.6498,0.655,0.6588,0.6631,0.6667,0.6731,0.6776,0.6816,0.6868,0.6881,0.6906,0.6917,0.6903,0.69,0.6923,0.6924,0.6936,0.6935,0.6935,0.6935,0,0.6163,0.6214,0.6266,0.634,0.636,0.6386,0.6451,0.6481,0.6523,0.6572,0.6586,0.6652,0.6708,0.6763,0.6838,0.6865,0.6917,0.693,0.6897,0.6904,0.6917,0.6915,0.6943,0.6952,0.695,0.695,0.695,0,0.616,0.6187,0.6264,0.6293,0.6327,0.6372,0.6406,0.6462,0.6496,0.6567,0.659,0.6648,0.6698,0.6786,0.6842,0.6901,0.6917,0.6924,0.6926,0.6914,0.6921,0.6919,0.6925,0.6922,0.6921,0.6921,0.6921,0,0.6151,0.6177,0.6223,0.628,0.632,0.6367,0.6417,0.6439,0.6505,0.6542,0.6599,0.6638,0.6716,0.6776,0.6842,0.6882,0.6914,0.692,0.6927,0.6914,0.6895,0.6909,0.6895,0.6919,0.6919,0.6919,0.6919,0.6919,0.6137,0.6165,0.6225,0.6277,0.6321,0.6367,0.6401,0.6448,0.6496,0.6564,0.6595,0.6654,0.6716,0.6809,0.6849,0.6898,0.6906,0.6915,0.6918,0.692,0.6919,0.6886,0.691,0.691,0.691,0.691,0.6911,0,0.6132,0.6174,0.6222,0.6291,0.6333,0.6359,0.6417,0.6452,0.6503,0.6558,0.6607,0.6676,0.6736,0.6799,0.6863,0.6891,0.6908,0.6906,0.6905,0.6915,0.6906,0.6895,0.6891,0.6891,0.6891,0.6891,0.6891,0.6891,0.6135,0.6184,0.6218,0.6292,0.6334,0.6392,0.6423,0.6469,0.6513,0.6588,0.6638,0.6678,0.6739,0.6808,0.6866,0.6883,0.6906,0.6901,0.6923,0.6913,0.6914,0.6916,0.6905,0.6905,0.6905,0.6928,0.6928,0.6928]},{"header":{"parameterUnit":"m.s-1","parameterCategory":1,"la1":30.2991,"la2":30.254,"lo1":-89.0895,"lo2":-89.0444,"dy":0.0017,"dx":0.0017,"nx":28,"ny":28,"refTime":"2024-05-09T03:00:00:Z","depth":0,"parameterNumber":3,"parameterNumberName":"V-component_of_WINDS"},"data":[0,0,0,0,0,0,0,0,0,0,0,0,0,0,0,0,0,0,0,0,0,0,0,0,0,0,0,0,0,0,0,0,0,0,0,0,0,0,0,0,0,0,0,0,0,0,0,0,0,0,0,0,0,0,0,0,0,0,-4.2533,-4.2532,0,-4.2436,-4.2434,-4.2433,-4.2401,-4.2402,-4.2402,-4.2403,-4.229,-4.2287,-4.2284,0,0,0,0,0,0,0,0,0,0,0,0,0,-4.2679,-4.2677,-4.2533,-4.2532,-4.2531,-4.2436,-4.2434,-4.2433,-4.2401,-4.2402,-4.2403,-4.2403,-4.2291,-4.2287,-4.2283,0,0,0,0,0,0,0,0,0,0,0,0,0,-4.2602,-4.2676,-4.2533,-4.2504,-4.25,-4.2436,-4.2434,-4.2433,-4.2401,-4.2402,-4.2403,-4.2403,-4.2293,-4.2288,-4.2283,-4.2237,0,0,-4.2267,-4.2265,0,0,0,0,0,0,0,0,-4.2606,-4.2596,-4.2509,-4.2506,-4.2502,-4.2432,-4.2445,-4.2367,-4.2401,-4.2438,-4.2403,-4.2404,-4.2336,-4.2327,-4.2307,-4.2232,-4.2227,-4.2266,-4.2263,-4.2261,-4.226,0,0,0,0,0,0,0,-4.2612,-4.26,-4.2494,-4.2508,-4.2503,-4.2491,-4.2481,-4.243,-4.2384,-4.2435,-4.2433,-4.2422,-4.2334,-4.2312,-4.2304,-4.2225,-4.2267,-4.2262,-4.2259,-4.2257,-4.2103,-4.2102,0,0,0,0,0,0,-4.2624,-4.2605,-4.2497,-4.2491,-4.2557,-4.2488,-4.2477,-4.2453,-4.2385,-4.2375,-4.2422,-4.2421,-4.2321,-4.231,-4.23,-4.2239,-4.2261,-4.2256,-4.2253,-4.2104,-4.2102,-4.2101,0,0,0,0,0,0,-4.2627,-4.2614,-4.2501,-4.2548,-4.2532,-4.2485,-4.2459,-4.2451,-4.2429,-4.2375,-4.2365,-4.2409,-4.2321,-4.2307,-4.2253,-4.2235,-4.2254,-4.2249,-4.2105,-4.2103,-4.2102,-4.2119,0,0,0,0,0,0,-4.2631,-4.2616,-4.2601,-4.2548,-4.253,-4.246,-4.2458,-4.2449,-4.2422,-4.242,-4.236,-4.235,-4.232,-4.2261,-4.2248,-4.2228,-4.2245,-4.2106,-4.2104,-4.2102,-4.212,-4.2118,-4.2117,0,0,0,0,0,-4.2637,-4.2608,-4.2601,-4.2588,-4.2512,-4.2459,-4.2449,-4.2418,-4.2421,-4.2403,-4.2368,-4.2352,-4.224,-4.2255,-4.224,-4.2219,-4.2107,-4.2105,-4.2102,-4.212,-4.2119,-4.2117,0,0,0,0,0,0,-4.2657,-4.2601,-4.2592,-4.2546,-4.2508,-4.2454,-4.2432,-4.2418,-4.2375,-4.2374,-4.2334,-4.2321,-4.2268,-4.2238,-4.2257,-4.2169,-4.2172,-4.2167,-4.2191,-4.2189,-4.2187,-4.2194,-4.2241,0,0,0,0,0,-4.2657,-4.2624,-4.2574,-4.2538,-4.252,-4.2479,-4.2455,-4.2435,-4.2392,-4.2375,-4.2335,-4.2291,-4.2245,-4.2215,-4.217,-4.2116,-4.2099,-4.2093,-4.2092,-4.2091,-4.2086,-4.205,-4.2046,-4.2094,-4.2094,-4.2094,0,0,-4.2655,-4.262,-4.2601,-4.2542,-4.251,-4.2471,-4.2466,-4.2426,-4.2395,-4.2367,-4.2314,-4.2283,-4.223,-4.2175,-4.2148,-4.2148,-4.2069,-4.2088,-4.2088,-4.2083,-4.2048,-4.2043,-4.2039,-4.2092,-4.2092,-4.2093,0,0,-4.2632,-4.2604,-4.257,-4.2539,-4.2492,-4.2464,-4.2456,-4.2404,-4.2383,-4.233,-4.2307,-4.2268,-4.2191,-4.2154,-4.2124,-4.2085,-4.2067,-4.2071,-4.2063,-4.2028,-4.2025,-4.2021,-4.2003,-4.1998,-4.2066,-4.2066,-4.2066,0,-4.2634,-4.258,-4.2553,-4.2514,-4.2487,-4.2464,-4.2426,-4.2395,-4.2334,-4.2313,-4.2315,-4.2216,-4.2179,-4.2113,-4.2103,-4.2082,-4.2067,-4.2077,-4.2028,-4.2024,-4.202,-4.2003,-4.1996,-4.2067,-4.2067,-4.2067,-4.2067,0,-4.2584,-4.2546,-4.2523,-4.2469,-4.2439,-4.2401,-4.2363,-4.2335,-4.2317,-4.2288,-4.2231,-4.2186,-4.213,-4.2113,-4.2094,-4.2042,-4.2043,-4.2037,-4.2039,-4.2017,-4.1999,-4.1993,-4.2068,-4.2068,-4.2067,-4.2067,0,0,-4.2571,-4.2502,-4.2494,-4.2467,-4.2413,-4.2381,-4.2339,-4.2288,-4.2263,-4.2221,-4.2182,-4.2117,-4.211,-4.2077,-4.2053,-4.2024,-4.199,-4.202,-4.2018,-4.2013,-4.1925,-4.1928,-4.1921,-4.1979,-4.1978,-4.1977,-4.1929,0,-4.2538,-4.2469,-4.2442,-4.2382,-4.2344,-4.232,-4.2283,-4.2243,-4.2214,-4.2174,-4.214,-4.2093,-4.2091,-4.207,-4.204,-4.2001,-4.1971,-4.2004,-4.1937,-4.1935,-4.1949,-4.1913,-4.1916,-4.1873,-4.1922,-4.1921,-4.192,0,-4.2492,-4.2453,-4.2391,-4.2339,-4.2322,-4.229,-4.2239,-4.2203,-4.2154,-4.2135,-4.2098,-4.2075,-4.2025,-4.2032,-4.1959,-4.1982,-4.1952,-4.1929,-4.1926,-4.1916,-4.1925,-4.1898,-4.1859,-4.1851,-4.191,-4.1911,-4.1911,0,-4.2485,-4.2417,-4.237,-4.2348,-4.2287,-4.2265,-4.2237,-4.219,-4.216,-4.2114,-4.2093,-4.2041,-4.2011,-4.1968,-4.193,-4.1939,-4.1859,-4.1864,-4.1837,-4.1837,-4.1819,-4.182,-4.1771,-4.1805,-4.1806,-4.1806,-4.1806,0,-4.245,-4.2412,-4.2366,-4.2337,-4.2292,-4.2259,-4.2213,-4.2184,-4.2142,-4.2102,-4.2077,-4.204,-4.1993,-4.1948,-4.1917,-4.1859,-4.1846,-4.1825,-4.1817,-4.1826,-4.1828,-4.1804,-4.1804,-4.1804,-4.1804,-4.1805,-4.1805,0,-4.2435,-4.2403,-4.235,-4.2297,-4.2282,-4.2251,-4.2203,-4.217,-4.2141,-4.2091,-4.2077,-4.2028,-4.1973,-4.1931,-4.1859,-4.1838,-4.1775,-4.1768,-4.1793,-4.1788,-4.1762,-4.1764,-4.1693,-4.168,-4.1727,-4.1727,-4.1726,0,-4.2414,-4.2385,-4.2329,-4.2303,-4.2277,-4.2235,-4.2204,-4.2169,-4.2138,-4.2079,-4.2053,-4.1998,-4.1951,-4.1864,-4.1818,-4.1762,-4.175,-4.173,-4.1741,-4.175,-4.1745,-4.1746,-4.1741,-4.1727,-4.1727,-4.1726,-4.1726,0,-4.2379,-4.2364,-4.2324,-4.2277,-4.2243,-4.2203,-4.2162,-4.2141,-4.2098,-4.2062,-4.2009,-4.1973,-4.19,-4.1843,-4.1782,-4.1747,-4.1727,-4.1723,-4.1713,-4.1721,-4.1735,-4.1723,-4.1785,-4.1724,-4.1725,-4.1725,-4.1725,-4.1725,-4.2358,-4.2329,-4.2285,-4.224,-4.2206,-4.2168,-4.2135,-4.2101,-4.2057,-4.1998,-4.1979,-4.1921,-4.1869,-4.1785,-4.175,-4.1701,-4.17,-4.1687,-4.1682,-4.1679,-4.1678,-4.1746,-4.169,-4.169,-4.169,-4.169,-4.169,0,-4.2319,-4.2289,-4.2248,-4.2193,-4.2156,-4.2146,-4.2099,-4.2067,-4.2019,-4.1974,-4.193,-4.1864,-4.1808,-4.1758,-4.1699,-4.1668,-4.1657,-4.1653,-4.1653,-4.1644,-4.1684,-4.1697,-4.1663,-4.1663,-4.1663,-4.1663,-4.1663,-4.1663,-4.2294,-4.2244,-4.2224,-4.2154,-4.2124,-4.2071,-4.2044,-4.2007,-4.1971,-4.1901,-4.1856,-4.1825,-4.1776,-4.1712,-4.1658,-4.1644,-4.1621,-4.1619,-4.1602,-4.1639,-4.1642,-4.1645,-4.1657,-4.1615,-4.1615,-4.1566,-4.1566,-4.1565]}]]